Tracking 29892 objects as of 21-Nov-2024
HD Live streaming from Space Station
objects crossing your sky now

STARLINK-3565

Track STARLINK-3565 now!
10-day predictions
STARLINK-3565 is classified as:


NORAD ID: 51886
Int'l Code: 2022-022AL
Perigee: 545.8 km
Apogee: 547.9 km
Inclination: 53.2 °
Period: 95.4 minutes
Semi major axis: 6917 km
RCS: Unknown
Launch date: March 3, 2022
Source: United States (US)
Launch site: AIR FORCE EASTERN TEST RANGE (AFETR)
Your satellite tracking list
Your tracking list is empty




NASA's NSSDC Master Catalog

Two Line Element Set (TLE):
1 51886U 22022AL  24325.42473274 -.00000034  00000-0  15956-4 0  9993
2 51886  53.2181 328.1776 0001554  95.1870 264.9300 15.08843459151658
Source of the keplerian elements: AFSPC